KK7N Weather Reports


time (UTC)temp
F
wind
direction
speed
knots
gust
knots
rain 1hr
in
rain 24hr
in
rain mn
in
humidity
%
barometer
mb
20260510081610 55 0 0.0 0.0 0.00 0.00 0.00 82 1015.8
20260510080046 56 0 0.0 0.0 0.00 0.00 0.00 83 1015.8
20260510074546 56 0 0.0 0.0 0.00 0.00 0.00 81 1015.9
20260510073051 57 0 0.0 0.9 0.00 0.00 0.00 81 1015.7
20260510071555 57 0 0.0 1.7 0.00 0.00 0.00 80 1015.7
20260510070048 57 0 0.0 2.6 0.00 0.00 0.00 80 1015.7
20260510064549 58 0 0.0 0.0 0.00 0.00 0.00 79 1015.6
20260510063045 58 0 0.0 0.0 0.00 0.00 0.00 79 1015.7
20260510061553 59 0 0.0 0.0 0.00 0.00 0.00 77 1015.7
20260510060047 60 0 0.0 0.0 0.00 0.00 0.00 78 1015.6
20260510054543 60 0 0.0 0.9 0.00 0.00 0.00 76 1015.5
20260510053052 61 0 0.0 0.9 0.00 0.00 0.00 75 1015.5
20260510051544 61 0 0.0 0.9 0.00 0.00 0.00 74 1015.5
20260510050051 62 0 0.0 0.9 0.00 0.00 0.00 72 1015.4
20260510044549 63 0 0.0 0.0 0.00 0.00 0.00 71 1015.2
20260510043044 64 0 0.0 0.0 0.00 0.00 0.00 68 1015.0
20260510041543 65 0 0.0 0.0 0.00 0.00 0.00 67 1014.9
20260510040047 67 0 0.0 0.0 0.00 0.00 0.00 64 1014.6
20260510034557 68 0 0.0 0.0 0.00 0.00 0.00 61 1014.5
20260510033044 69 0 0.0 0.9 0.00 0.00 0.00 58 1014.4
20260510031557 72 0 0.0 0.0 0.00 0.00 0.00 53 1014.3
20260510030044 73 0 0.0 1.7 0.00 0.00 0.00 48 1014.3
20260510024542 74 0 0.0 0.0 0.00 0.00 0.00 46 1014.2
20260510023047 75 0 0.0 2.6 0.00 0.00 0.00 44 1014.2
20260510021543 76 288 0.0 3.5 0.00 0.00 0.00 35 1014.2
20260510020042 77 0 0.0 0.0 0.00 0.00 0.00 36 1014.2
20260510014545 78 0 0.0 3.5 0.00 0.00 0.00 36 1014.3
20260510013054 78 284 0.9 5.2 0.00 0.00 0.00 35 1014.5
20260510011550 78 0 0.0 1.7 0.00 0.00 0.00 37 1014.5
20260510010049 79 0 0.0 2.6 0.00 0.00 0.00 37 1014.6
20260510004548 79 284 0.9 7.8 0.00 0.00 0.00 34 1014.8
20260510003049 80 270 2.6 7.8 0.00 0.00 0.00 31 1014.8
20260510001546 80 294 0.9 4.3 0.00 0.00 0.00 34 1015.0
20260510000044 81 271 1.7 7.8 0.00 0.00 0.00 31 1015.0
20260509234543 80 300 2.6 7.8 0.00 0.00 0.00 35 1015.0
20260509233053 79 292 1.7 8.7 0.00 0.00 0.00 39 1015.2
20260509231553 79 279 3.5 7.8 0.00 0.00 0.00 36 1015.4
20260509230058 79 294 2.6 7.8 0.00 0.00 0.00 37 1015.7
20260509224548 79 323 2.6 9.6 0.00 0.00 0.00 41 1015.8
20260509223049 79 0 0.9 9.6 0.00 0.00 0.00 47 1016.0
20260509221550 78 295 2.6 10.4 0.00 0.00 0.00 43 1016.2
20260509220046 79 283 2.6 8.7 0.00 0.00 0.00 44 1016.4
20260509214544 78 284 4.3 10.4 0.00 0.00 0.00 45 1016.6
20260509213051 78 284 0.9 9.6 0.00 0.00 0.00 47 1016.8
20260509211545 78 275 2.6 7.8 0.00 0.00 0.00 43 1016.7
20260509210052 77 0 0.9 6.1 0.00 0.00 0.00 47 1016.8
20260509204550 76 303 1.7 7.8 0.00 0.00 0.00 48 1017.2
20260509203040 76 265 1.7 5.2 0.00 0.00 0.00 50 1017.4
20260509201540 75 0 0.9 4.3 0.00 0.00 0.00 49 1017.7
20260509200048 74 289 0.0 8.7 0.00 0.00 0.00 51 1018.0
20260509194543 73 273 1.7 5.2 0.00 0.00 0.00 54 1018.2
20260509193043 72 276 0.0 2.6 0.00 0.00 0.00 56 1018.4
20260509191543 72 276 0.0 3.5 0.00 0.00 0.00 53 1018.6
20260509190056 72 294 0.9 6.1 0.00 0.00 0.00 58 1018.8
20260509184616 70 0 0.0 3.5 0.00 0.00 0.00 58 1019.0
20260509183047 69 288 0.9 3.5 0.00 0.00 0.00 58 1019.3
20260509181547 68 290 0.9 4.3 0.00 0.00 0.00 62 1019.4
20260509180043 67 0 1.7 5.2 0.00 0.00 0.00 66 1019.5
20260509174542 65 0 0.0 3.5 0.00 0.00 0.00 67 1019.8
20260509173047 64 0 0.0 3.5 0.00 0.00 0.00 74 1020.0
20260509171544 62 271 0.9 5.2 0.00 0.00 0.00 74 1020.3
20260509170043 61 0 0.0 1.7 0.00 0.00 0.00 80 1020.4
20260509164542 58 0 0.0 3.5 0.00 0.00 0.00 81 1020.6
20260509163105 56 0 0.9 3.5 0.00 0.00 0.00 87 1020.9
20260509161544 53 280 0.0 2.6 0.00 0.00 0.00 92 1021.0
20260509160047 52 0 0.0 0.9 0.00 0.00 0.00 95 1020.9
20260509154548 50 269 0.0 0.9 0.00 0.00 0.00 95 1021.0
20260509153043 49 0 0.0 0.9 0.00 0.00 0.00 96 1021.5
20260509151542 48 0 0.0 0.0 0.00 0.00 0.00 95 1021.7
20260509150044 48 0 0.0 0.0 0.00 0.00 0.00 95 1021.7
20260509144545 47 0 0.0 0.0 0.00 0.00 0.00 96 1021.7
20260509143049 47 0 0.0 0.9 0.00 0.00 0.00 95 1021.7
20260509141548 46 0 0.0 0.9 0.00 0.00 0.00 95 1021.5
20260509140049 46 0 0.0 0.0 0.00 0.00 0.00 95 1021.6
20260509134543 46 0 0.0 0.0 0.00 0.00 0.00 95 1021.4
20260509133047 46 0 0.0 0.0 0.00 0.00 0.00 94 1021.5
20260509131544 46 0 0.0 0.9 0.00 0.00 0.00 94 1021.4
20260509130051 46 0 0.0 0.0 0.00 0.00 0.00 94 1021.4
20260509124554 46 0 0.0 0.0 0.00 0.00 0.00 93 1021.6
20260509123103 47 0 0.0 1.7 0.00 0.00 0.00 93 1021.6
20260509121549 47 0 0.0 0.0 0.00 0.00 0.00 93 1021.5
20260509120045 47 0 0.0 0.0 0.00 0.00 0.00 93 1021.4
20260509114544 47 0 0.0 0.9 0.00 0.00 0.00 93 1021.5
20260509113105 48 0 0.0 0.0 0.00 0.00 0.00 92 1021.6
20260509111551 48 0 0.0 0.0 0.00 0.00 0.00 92 1021.9
20260509110045 49 0 0.0 0.0 0.00 0.00 0.00 91 1022.0
20260509104555 49 0 0.0 0.9 0.00 0.00 0.00 91 1021.9
20260509103054 49 0 0.0 0.0 0.00 0.00 0.00 91 1021.9
20260509101543 50 0 0.0 2.6 0.00 0.00 0.00 91 1021.9
20260509100105 50 0 0.0 0.0 0.00 0.00 0.00 88 1021.9
20260509094541 51 0 0.0 0.0 0.00 0.00 0.00 87 1022.0
20260509093045 51 0 0.0 0.0 0.00 0.00 0.00 87 1021.9
20260509091556 52 0 0.0 0.0 0.00 0.00 0.00 86 1022.1
20260509090042 52 0 0.0 0.0 0.00 0.00 0.00 86 1022.3
20260509084541 53 0 0.0 0.0 0.00 0.00 0.00 85 1022.4
20260509083047 53 0 0.0 0.9 0.00 0.00 0.00 85 1022.6